GPS IIF-8

operational
NORAD ID: 40294 Int'l Des: 2014-068 Owner: AFSMC Country: US Constellation: GPS
MEOCIRCULARGNSS

Über GPS IIF-8

Beschreibung wird geladen...

Live-Position

3D-Globus wird geladen...

Nächste Überflüge

Höhenverlauf

Altitude vs Time

uPlot chart will show altitude changes over time

Zweizeiliger Elementsatz

1 40294U 14068A 25297.59791059 -.00000070 00000-0 00000+0 0 9995
2 40294 56.8228 40.0465 0061221 69.8875 290.7820 2.00561963 80486
Epoch: 24. Okt. 2025 • Age: 29 hours

Aktueller Status

Höhe 20179.2 km
Geschwindigkeit 3.87 km/s
Subsatellitenpunkt 17.39°N, 119.1°W
Startdatum 29. Okt. 2014
Alter 10.9 years
Typ navigation

Technische Details

Klassifizierung Payload
Masse 1630.00 kg
Trockenmasse 1500.00 kg
Gesamtmasse 1630.00 kg
Länge 2.50 m
Durchmesser 1.80 m
Spannweite 18.00 m
Form Box + 2 Pan
Hersteller BOES
Bus-Typ GPS IIF
Phasenstatus In Orbit
Besitzer/Staat AFSMC/US

Große Konstellationen

Loading constellations...